Flag for U.S.A. Weather past 2 weeks in Redmond, Washington, U.S.A.

Now
50 °F

Passing clouds.


Feels Like: 47 °F
Forecast: 43 / 52 °F
Wind: 7 mph from South

Location: Seattle Boeing Field

Current Time: Dec 19, 2014 at 5:44:17 AM

Latest Report: Dec 19, 2014 at 4:53 AM


Visibility: 10 mi

Pressure: 29.83 "Hg

Humidity: 80%

Dew point: 44 °F

Location of RedmondLocation

Historic Weather in Redmond — Graph

°F

Redmond temperature yesterday

Maximum temperature yesterday: 51 °F (at 1:53 PM)
Minimum temperature yesterday: 46 °F (at 12:57 AM)
Average temperature yesterday: 49 °F

Past Weeks' High & Low Weather Summary

 TemperatureHumidityPressure
High68 °F (Dec 10, 10:53 AM)93% (Dec 7, 9:55 AM)30.24 "Hg (Dec 7, 9:55 AM)
Low38 °F (Dec 14, 7:53 AM)27% (Dec 14, 3:53 PM)29.13 "Hg (Dec 11, 3:53 PM)
Average51 °F72%29.86 "Hg
* Reported Dec 4 3:53 AM — Dec 19 3:53 AM, Redmond, Weather by CustomWeather, © 2014

Note: Actual official high and low records may vary slightly from our data, if they occured in-between our weather recording intervals... More about our weather records

Advertising

Redmond weather history for previous 24 hours

 ConditionsComfort  
Time TempWeatherWind HumidityBarometerVisibility
3:53 AM
Dec 19
50 °FLight rain. Mostly cloudy.6 mph83%29.83 "Hg7 mi
2:53 AM50 °FOvercast.5 mph77%29.82 "Hg10 mi
1:53 AM50 °FLight rain. Overcast.9 mph86%29.80 "Hg10 mi
12:53 AM50 °FLight rain. Overcast.10 mph86%29.80 "Hg8 mi
11:53 PM
Dec 18
51 °FLight rain. Overcast.7 mph83%29.78 "Hg10 mi
10:53 PM49 °FRain. Fog.5 mph86%29.77 "Hg4 mi
9:53 PM48 °FLight rain. Overcast.5 mph83%29.73 "Hg6 mi
8:53 PM49 °FLight rain. Overcast.8 mph77%29.72 "Hg10 mi
7:53 PM49 °FLight rain. Overcast.8 mph80%29.73 "Hg10 mi
6:53 PM50 °FOvercast.7 mph74%29.74 "Hg10 mi
5:53 PM50 °FLight rain. Overcast.10 mph74%29.76 "Hg10 mi
4:53 PM50 °FLight rain. Overcast.9 mph77%29.78 "Hg10 mi
3:53 PM50 °FLight rain. Cloudy.9 mph80%29.81 "Hg5 mi
2:53 PM51 °FLight rain. Cloudy.6 mph74%29.82 "Hg10 mi
1:53 PM51 °FMostly cloudy.7 mph74%29.83 "Hg10 mi
12:53 PM50 °FCloudy.3 mph77%29.84 "Hg10 mi
11:53 AM49 °FLight rain. Mostly cloudy.3 mph77%29.88 "Hg7 mi
10:53 AM49 °FMore clouds than sun.No wind74%29.90 "Hg10 mi
9:53 AM48 °FMore clouds than sun.6 mph77%29.92 "Hg10 mi
8:53 AM47 °FOvercast.3 mph83%29.93 "Hg10 mi
7:53 AM47 °FOvercast.3 mph86%29.94 "Hg10 mi
6:53 AM47 °FOvercast.3 mph83%29.94 "Hg10 mi
5:53 AM47 °FPassing clouds.3 mph86%29.94 "Hg10 mi
Weather by CustomWeather, © 2014

See weather overviewHow to use our weather pages